Palacios, TX

9:56 PM CST on February 23, 2018 (GMT -0600)
Palacios Municipal

Weather History for KPSX - November, 2011

Change the Weather History Date:

Thursday, November 3, 2011

  Actual Average Record
Temperature  
Mean Temperature 56 °F -  
Max Temperature 68 °F 73 °F 87 °F (2012)
Min Temperature 43 °F 54 °F 30 °F (1951)
Degree Days  
Heating Degree Days 8    
Growing Degree Days 6 (Base 50)    
Moisture  
Dew Point 37 °F    
Average Humidity 50    
Maximum Humidity 97    
Minimum Humidity 22    
Precipitation  
Precipitation 0.00 in - - ()
Sea Level Pressure  
Sea Level Pressure 30.23 in    
Wind  
Wind Speed 19 mph (NNW)    
Max Wind Speed 37 mph    
Max Gust Speed 48 mph    
Visibility 10 miles    
Events Rain    
Averages and records for this station are not official NWS values.
T = Trace of Precipitation, MM = Missing Value Source: NWS Daily Summary

Daily Weather History Graph

Daily Weather History Graph

Search for Another Location

Airport or City:

Trip Planner

Search our weather history database for the weather conditions in past years. The results will help you decide how hot, cold, wet, or windy it might be!

Date:

Astronomy

Nov. 03, 2011 Rise Set
Actual Time 7:38 AM CDT 6:38 PM CDT
Civil Twilight 7:13 AM CDT 7:02 PM CDT
Nautical Twilight 6:45 AM CDT 7:30 PM CDT
Astronomical Twilight 6:18 AM CDT 7:58 PM CDT
Moon 2:33 PM CDT (11/3) 1:23 AM CDT (11/3)
Length of Visible Light 11h 48m
Length of Day
10h 59m
First Quarter, 60% of the Moon is Illuminated
Nov 3
First Quarter
Nov 10
Full
Nov 18
Last Quarter
Nov 25
New
Dec 2
First Quarter

Hourly Weather History & Observations

Time (CDT) Temp. Windchill Dew Point Humidity Pressure Visibility Wind Dir Wind Speed Gust Speed Precip Events Conditions
12:53 AM 70.0 °F - 69.1 °F 97% 30.08 in 10.0 mi Calm Calm - N/A   Clear
1:18 AM 62.6 °F - 59.0 °F 88% 30.12 in 10.0 mi NNW 35.7 mph 48.3 mph N/A   Mostly Cloudy
1:25 AM 64.4 °F - 53.6 °F 68% 30.13 in 10.0 mi North 36.8 mph 48.3 mph N/A   Overcast
1:49 AM 60.8 °F - 53.6 °F 77% 30.15 in 10.0 mi North 23.0 mph 33.4 mph 0.00 in Rain Light Rain
1:53 AM 61.0 °F - 52.0 °F 72% 30.15 in 10.0 mi North 23.0 mph 28.8 mph 0.00 in   Mostly Cloudy
2:53 AM 59.0 °F - 46.0 °F 62% 30.17 in 10.0 mi North 24.2 mph 31.1 mph N/A   Overcast
3:53 AM 59.0 °F - 43.0 °F 55% 30.17 in 10.0 mi North 23.0 mph 32.2 mph N/A   Overcast
4:53 AM 57.9 °F - 39.0 °F 49% 30.19 in 10.0 mi North 23.0 mph 32.2 mph N/A   Mostly Cloudy
5:53 AM 55.9 °F - 37.0 °F 49% 30.22 in 10.0 mi North 19.6 mph 31.1 mph N/A   Overcast
7:53 AM 53.1 °F - 36.0 °F 52% 30.27 in 10.0 mi North 27.6 mph 40.3 mph N/A   Overcast
8:53 AM 52.0 °F - 36.0 °F 54% 30.30 in 10.0 mi North 26.5 mph 31.1 mph N/A   Overcast
9:53 AM 53.1 °F - 35.1 °F 50% 30.32 in 10.0 mi North 24.2 mph 38.0 mph N/A   Overcast
10:53 AM 57.0 °F - 35.1 °F 44% 30.32 in 10.0 mi North 28.8 mph 36.8 mph N/A   Partly Cloudy
11:53 AM 60.1 °F - 35.1 °F 39% 30.31 in 10.0 mi North 24.2 mph 33.4 mph N/A   Clear
12:53 PM 63.0 °F - 33.1 °F 33% 30.30 in 10.0 mi NNW 23.0 mph 29.9 mph N/A   Clear
1:53 PM 64.0 °F - 30.0 °F 28% 30.27 in 10.0 mi North 24.2 mph 33.4 mph N/A   Clear
2:53 PM 66.0 °F - 28.9 °F 25% 30.25 in 10.0 mi NNW 19.6 mph 29.9 mph N/A   Clear
3:53 PM 66.0 °F - 27.0 °F 23% 30.23 in 10.0 mi NNW 21.9 mph 29.9 mph N/A   Clear
4:53 PM 64.9 °F - 26.1 °F 23% 30.22 in 10.0 mi NNW 18.4 mph 26.5 mph N/A   Clear
5:53 PM 64.0 °F - 24.1 °F 22% 30.22 in 10.0 mi North 16.1 mph - N/A   Clear
6:53 PM 57.9 °F - 25.0 °F 28% 30.23 in 10.0 mi North 10.4 mph - N/A   Clear
7:53 PM 51.1 °F - 30.9 °F 46% 30.25 in 10.0 mi North 6.9 mph - N/A   Clear
8:53 PM 46.9 °F - 30.0 °F 52% 30.26 in 10.0 mi NNW 8.1 mph - N/A   Clear
9:53 PM 43.0 °F 38.8 °F 28.9 °F 58% 30.27 in 10.0 mi NW 6.9 mph - N/A   Clear
10:53 PM 45.0 °F 42.6 °F 28.0 °F 52% 30.28 in 10.0 mi WNW 4.6 mph - N/A   Clear
11:53 PM 43.0 °F 38.2 °F 27.0 °F 53% 30.27 in 10.0 mi NNW 8.1 mph - N/A   Clear